| time (UTC) | temp F | wind direction | speed MPH | gust MPH | rain 1hr in | rain 24hr in | rain mn in | humidity % | barometer mb |
| 20260504081537 | 65 | 184 | 2.0 | 8.0 | 0.00 | 0.00 | 0.00 | 45 | 1015.0 |
| 20260504050019 | 57 | 173 | 5.0 | 16.0 | 0.00 | 0.00 | 0.00 | 51 | 1014.4 |
| 20260504044505 | 57 | 141 | 3.0 | 9.0 | 0.00 | 0.00 | 0.00 | 52 | 1014.4 |
| 20260504043008 | 57 | 173 | 5.0 | 14.0 | 0.00 | 0.00 | 0.00 | 51 | 1014.5 |
| 20260504041513 | 57 | 173 | 3.0 | 16.0 | 0.00 | 0.00 | 0.00 | 51 | 1014.4 |
| 20260504040016 | 57 | 173 | 4.0 | 21.0 | 0.00 | 0.00 | 0.00 | 51 | 1014.5 |
| 20260504034517 | 57 | 231 | 3.0 | 10.0 | 0.00 | 0.00 | 0.00 | 51 | 1014.5 |
| 20260504033019 | 56 | 173 | 5.0 | 11.0 | 0.00 | 0.00 | 0.00 | 50 | 1014.5 |
| 20260504031510 | 57 | 50 | 3.0 | 11.0 | 0.00 | 0.00 | 0.00 | 50 | 1014.5 |
| 20260504030024 | 56 | 173 | 1.0 | 9.0 | 0.00 | 0.00 | 0.00 | 49 | 1014.5 |
| 20260504024521 | 56 | 173 | 2.0 | 9.0 | 0.00 | 0.00 | 0.00 | 49 | 1014.5 |
| 20260504023021 | 57 | 173 | 2.0 | 11.0 | 0.00 | 0.00 | 0.00 | 48 | 1014.4 |
| 20260504021522 | 57 | 198 | 6.0 | 12.0 | 0.00 | 0.00 | 0.00 | 48 | 1014.5 |
| 20260504020014 | 57 | 82 | 4.0 | 11.0 | 0.00 | 0.00 | 0.00 | 48 | 1014.3 |
| 20260504014526 | 57 | 160 | 5.0 | 12.0 | 0.00 | 0.00 | 0.00 | 47 | 1014.3 |
| 20260504013034 | 58 | 173 | 5.0 | 13.0 | 0.00 | 0.00 | 0.00 | 47 | 1014.3 |
| 20260504011523 | 58 | 135 | 3.0 | 13.0 | 0.00 | 0.00 | 0.00 | 46 | 1014.2 |
| 20260504010026 | 58 | 131 | 5.0 | 11.0 | 0.00 | 0.00 | 0.00 | 46 | 1014.2 |
| 20260504004514 | 58 | 173 | 6.0 | 12.0 | 0.00 | 0.00 | 0.00 | 45 | 1014.2 |
| 20260504003019 | 59 | 186 | 3.0 | 17.0 | 0.00 | 0.00 | 0.00 | 45 | 1014.1 |
| 20260504001524 | 59 | 173 | 6.0 | 12.0 | 0.00 | 0.00 | 0.00 | 45 | 1014.2 |
| 20260504000007 | 59 | 152 | 5.0 | 15.0 | 0.00 | 0.00 | 0.00 | 45 | 1014.3 |
| 20260503234512 | 59 | 173 | 4.0 | 12.0 | 0.00 | 0.00 | 0.00 | 45 | 1014.4 |
| 20260503233021 | 59 | 160 | 3.0 | 12.0 | 0.00 | 0.00 | 0.00 | 44 | 1014.5 |
| 20260503231520 | 59 | 174 | 4.0 | 10.0 | 0.00 | 0.00 | 0.00 | 45 | 1014.5 |
| 20260503230004 | 58 | 174 | 1.0 | 8.0 | 0.00 | 0.00 | 0.00 | 45 | 1014.8 |
| 20260503224509 | 59 | 173 | 1.0 | 11.0 | 0.00 | 0.00 | 0.00 | 45 | 1014.7 |
| 20260503223013 | 58 | 211 | 3.0 | 9.0 | 0.00 | 0.00 | 0.00 | 45 | 1014.6 |
| 20260503221518 | 57 | 174 | 1.0 | 3.0 | 0.00 | 0.00 | 0.00 | 47 | 1014.8 |
| 20260503220024 | 58 | 5 | 1.0 | 5.0 | 0.00 | 0.00 | 0.00 | 46 | 1015.0 |
| 20260503214503 | 58 | 160 | 1.0 | 10.0 | 0.00 | 0.00 | 0.00 | 46 | 1015.0 |
| 20260503213010 | 58 | 159 | 1.0 | 5.0 | 0.00 | 0.00 | 0.00 | 46 | 1015.1 |
| 20260503211514 | 59 | 174 | 2.0 | 6.0 | 0.00 | 0.00 | 0.00 | 45 | 1015.1 |
| 20260503210019 | 59 | 109 | 2.0 | 9.0 | 0.00 | 0.00 | 0.00 | 44 | 1015.0 |
| 20260503204523 | 60 | 174 | 2.0 | 9.0 | 0.00 | 0.00 | 0.00 | 45 | 1015.1 |
| 20260503203013 | 60 | 174 | 4.0 | 14.0 | 0.00 | 0.00 | 0.00 | 45 | 1015.0 |
| 20260503201511 | 60 | 160 | 7.0 | 18.0 | 0.00 | 0.00 | 0.00 | 45 | 1014.8 |
| 20260503200020 | 60 | 203 | 4.0 | 12.0 | 0.00 | 0.00 | 0.00 | 45 | 1015.0 |
| 20260503194534 | 60 | 214 | 5.0 | 13.0 | 0.00 | 0.00 | 0.00 | 45 | 1015.0 |
| 20260503193026 | 60 | 173 | 3.0 | 9.0 | 0.00 | 0.00 | 0.00 | 46 | 1015.0 |
| 20260503191530 | 60 | 153 | 1.0 | 8.0 | 0.00 | 0.00 | 0.00 | 46 | 1015.1 |
| 20260503190017 | 59 | 174 | 1.0 | 7.0 | 0.00 | 0.00 | 0.00 | 46 | 1015.4 |
| 20260503184523 | 58 | 174 | 0.0 | 3.0 | 0.00 | 0.00 | 0.00 | 47 | 1015.4 |
| 20260503183021 | 59 | 174 | 1.0 | 4.0 | 0.00 | 0.00 | 0.00 | 47 | 1015.3 |
| 20260503181522 | 60 | 174 | 0.0 | 2.0 | 0.00 | 0.00 | 0.00 | 47 | 1015.2 |
| 20260503180033 | 61 | 93 | 0.0 | 3.0 | 0.00 | 0.00 | 0.00 | 44 | 1015.2 |
| 20260503174513 | 63 | 160 | 1.0 | 5.0 | 0.00 | 0.00 | 0.00 | 42 | 1015.2 |
| 20260503173016 | 64 | 160 | 0.0 | 3.0 | 0.00 | 0.00 | 0.00 | 41 | 1015.1 |
| 20260503171522 | 65 | 222 | 2.0 | 6.0 | 0.00 | 0.00 | 0.00 | 39 | 1015.0 |